Weather History for KIWD - June, 2012

Change the Weather History Date:

Thursday, June 21, 2012

  Actual Average Record
Temperature  
Mean Temperature 64 °F -  
Max Temperature 71 °F 72 °F - (-1)
Min Temperature 57 °F 52 °F - (-1)
Degree Days  
Heating Degree Days 1    
Growing Degree Days 14 (Base 50)    
Moisture  
Dew Point 53 °F    
Average Humidity 67    
Maximum Humidity 88    
Minimum Humidity 46    
Precipitation  
Precipitation 0.00 in - - ()
Sea Level Pressure  
Sea Level Pressure 29.84 in    
Wind  
Wind Speed 10 mph (West)    
Max Wind Speed 22 mph    
Max Gust Speed 28 mph    
Visibility 10 miles    
Events      
Averages and records for this station are not official NWS values.
T = Trace of Precipitation, MM = Missing Value Source: NWS Daily Summary

Daily Weather History Graph

Daily Weather History Graph

Search for Another Location

Airport or City:

Trip Planner

Search our weather history database for the weather conditions in past years. The results will help you decide how hot, cold, wet, or windy it might be!

Date:

Astronomy

Jun. 21, 2012 Rise Set
Actual Time 5:07 AM CDT 8:57 PM CDT
Civil Twilight 4:28 AM CDT 9:36 PM CDT
Nautical Twilight 3:34 AM CDT 10:29 PM CDT
Astronomical Twilight 2:17 AM CDT 11:47 PM CDT
Moon 7:12 AM CDT (6/21) 10:11 PM CDT (6/21)
Length of Visible Light 17h 08m
Length of Day
15h 49m
Waxing Crescent, 4% of the Moon is Illuminated
Jun 21
Waxing Crescent
Jun 26
First Quarter
Jul 3
Full
Jul 10
Last Quarter
Jul 18
New

Hourly Weather History & Observations

Time (CDT) Temp. Dew Point Humidity Pressure Visibility Wind Dir Wind Speed Gust Speed Precip Events Conditions
12:15 AM 62.6 °F 59.0 °F 88% 29.75 in 10.0 mi WSW 6.9 mph - N/A   Overcast
12:35 AM 62.6 °F 57.2 °F 82% 29.76 in 10.0 mi West 6.9 mph - N/A   Mostly Cloudy
12:55 AM 62.6 °F 57.2 °F 82% 29.75 in 10.0 mi SW 8.1 mph - N/A   Partly Cloudy
1:15 AM 62.6 °F 57.2 °F 82% 29.76 in 10.0 mi West 5.8 mph - N/A   Clear
1:35 AM 62.6 °F 57.2 °F 82% 29.77 in 10.0 mi WSW 6.9 mph - N/A   Scattered Clouds
1:55 AM 62.6 °F 57.2 °F 82% 29.76 in 10.0 mi WSW 8.1 mph - N/A   Scattered Clouds
2:15 AM 62.6 °F 57.2 °F 82% 29.76 in 10.0 mi WSW 11.5 mph - N/A   Scattered Clouds
2:35 AM 62.6 °F 57.2 °F 82% 29.77 in 10.0 mi WSW 10.4 mph - N/A   Scattered Clouds
2:55 AM 62.6 °F 57.2 °F 82% 29.77 in 10.0 mi WSW 11.5 mph - N/A   Mostly Cloudy
3:15 AM 62.6 °F 57.2 °F 82% 29.77 in 10.0 mi WSW 10.4 mph - N/A   Overcast
3:35 AM 62.6 °F 57.2 °F 82% 29.77 in 10.0 mi WSW 11.5 mph - N/A   Overcast
3:55 AM 62.6 °F 57.2 °F 82% 29.77 in 10.0 mi WSW 9.2 mph - N/A   Overcast
4:15 AM 60.8 °F 57.2 °F 88% 29.78 in 10.0 mi WSW 10.4 mph - N/A   Overcast
4:35 AM 60.8 °F 55.4 °F 82% 29.78 in 10.0 mi West 8.1 mph - N/A   Mostly Cloudy
4:55 AM 60.8 °F 55.4 °F 82% 29.79 in 10.0 mi WSW 8.1 mph - N/A   Overcast
5:15 AM 60.8 °F 55.4 °F 82% 29.79 in 10.0 mi WSW 6.9 mph - N/A   Overcast
5:35 AM 60.8 °F 55.4 °F 82% 29.79 in 10.0 mi West 6.9 mph - N/A   Overcast
5:55 AM 60.8 °F 55.4 °F 82% 29.79 in 10.0 mi WSW 8.1 mph - N/A   Mostly Cloudy
6:15 AM 60.8 °F 55.4 °F 82% 29.79 in 10.0 mi WSW 8.1 mph - N/A   Scattered Clouds
6:35 AM 60.8 °F 55.4 °F 82% 29.80 in 10.0 mi West 9.2 mph - N/A   Mostly Cloudy
6:55 AM 60.8 °F 55.4 °F 82% 29.80 in 10.0 mi WSW 10.4 mph - N/A   Overcast
7:15 AM 60.8 °F 55.4 °F 82% 29.80 in 10.0 mi WSW 10.4 mph - N/A   Overcast
7:35 AM 62.6 °F 55.4 °F 77% 29.81 in 10.0 mi West 9.2 mph - N/A   Mostly Cloudy
7:55 AM 62.6 °F 55.4 °F 77% 29.81 in 10.0 mi WSW 13.8 mph - N/A   Mostly Cloudy
8:15 AM 62.6 °F 55.4 °F 77% 29.81 in 10.0 mi WSW 12.7 mph - N/A   Overcast
8:35 AM 64.4 °F 55.4 °F 73% 29.81 in 10.0 mi WSW 16.1 mph - N/A   Mostly Cloudy
8:55 AM 64.4 °F 55.4 °F 73% 29.82 in 10.0 mi WSW 16.1 mph - N/A   Scattered Clouds
9:15 AM 64.4 °F 55.4 °F 73% 29.82 in 10.0 mi WSW 13.8 mph - N/A   Mostly Cloudy
9:35 AM 66.2 °F 55.4 °F 68% 29.82 in 10.0 mi West 13.8 mph - N/A   Scattered Clouds
9:55 AM 66.2 °F 55.4 °F 68% 29.83 in 10.0 mi West 13.8 mph 21.9 mph N/A   Mostly Cloudy
10:15 AM 66.2 °F 55.4 °F 68% 29.83 in 10.0 mi West 18.4 mph 23.0 mph N/A   Mostly Cloudy
10:35 AM 66.2 °F 55.4 °F 68% 29.84 in 10.0 mi West 13.8 mph 20.7 mph N/A   Overcast
10:55 AM 64.4 °F 53.6 °F 68% 29.85 in 10.0 mi WNW 17.3 mph 21.9 mph N/A   Overcast
11:15 AM 66.2 °F 53.6 °F 64% 29.85 in 10.0 mi West 13.8 mph 20.7 mph N/A   Scattered Clouds
11:35 AM 66.2 °F 53.6 °F 64% 29.86 in 10.0 mi West 13.8 mph 20.7 mph N/A   Scattered Clouds
11:55 AM 66.2 °F 53.6 °F 64% 29.86 in 10.0 mi WNW 19.6 mph - N/A   Mostly Cloudy
12:15 PM 64.4 °F 53.6 °F 68% 29.87 in 10.0 mi WNW 15.0 mph 24.2 mph N/A   Mostly Cloudy
12:35 PM 66.2 °F 53.6 °F 64% 29.87 in 10.0 mi West 16.1 mph 23.0 mph N/A   Scattered Clouds
12:55 PM 66.2 °F 51.8 °F 60% 29.88 in 10.0 mi West 16.1 mph 24.2 mph N/A   Partly Cloudy
1:15 PM 66.2 °F 53.6 °F 64% 29.88 in 10.0 mi West 15.0 mph 19.6 mph N/A   Scattered Clouds
1:35 PM 68.0 °F 51.8 °F 56% 29.88 in 10.0 mi West 13.8 mph 21.9 mph N/A   Scattered Clouds
1:55 PM 66.2 °F 50.0 °F 56% 29.88 in 10.0 mi West 13.8 mph 21.9 mph N/A   Partly Cloudy
2:15 PM 68.0 °F 50.0 °F 52% 29.88 in 10.0 mi WNW 18.4 mph 21.9 mph N/A   Partly Cloudy
2:35 PM 69.8 °F 50.0 °F 49% 29.87 in 10.0 mi West 13.8 mph 20.7 mph N/A   Partly Cloudy
2:55 PM 69.8 °F 51.8 °F 53% 29.87 in 10.0 mi West 12.7 mph 16.1 mph N/A   Partly Cloudy
3:15 PM 69.8 °F 50.0 °F 49% 29.87 in 10.0 mi West 18.4 mph 25.3 mph N/A   Scattered Clouds
3:35 PM 69.8 °F 50.0 °F 49% 29.87 in 10.0 mi WNW 15.0 mph 18.4 mph N/A   Scattered Clouds
3:55 PM 69.8 °F 50.0 °F 49% 29.87 in 10.0 mi West 16.1 mph 23.0 mph N/A   Mostly Cloudy
4:15 PM 71.6 °F 51.8 °F 50% 29.87 in 10.0 mi West 17.3 mph - N/A   Mostly Cloudy
4:35 PM 71.6 °F 50.0 °F 46% 29.87 in 10.0 mi West 21.9 mph 27.6 mph N/A   Scattered Clouds
4:55 PM 69.8 °F 50.0 °F 49% 29.87 in 10.0 mi West 10.4 mph 24.2 mph N/A   Scattered Clouds
5:15 PM 69.8 °F 50.0 °F 49% 29.87 in 10.0 mi West 13.8 mph - N/A   Partly Cloudy
5:35 PM 69.8 °F 50.0 °F 49% 29.87 in 10.0 mi WNW 13.8 mph 21.9 mph N/A   Clear
5:55 PM 69.8 °F 48.2 °F 46% 29.87 in 10.0 mi West 13.8 mph 21.9 mph N/A   Clear
6:15 PM 69.8 °F 48.2 °F 46% 29.87 in 10.0 mi WNW 13.8 mph - N/A   Clear
6:35 PM 69.8 °F 50.0 °F 49% 29.87 in 10.0 mi WNW 13.8 mph - N/A   Clear
6:55 PM 69.8 °F 50.0 °F 49% 29.88 in 10.0 mi WNW 12.7 mph 18.4 mph N/A   Partly Cloudy
7:15 PM 68.0 °F 50.0 °F 52% 29.88 in 10.0 mi WNW 9.2 mph - N/A   Clear
7:35 PM 66.2 °F 48.2 °F 52% 29.89 in 10.0 mi WNW 8.1 mph - N/A   Clear
7:55 PM 66.2 °F 48.2 °F 52% 29.89 in 10.0 mi West 5.8 mph - N/A   Mostly Cloudy
8:15 PM 64.4 °F 50.0 °F 59% 29.90 in 10.0 mi WNW 5.8 mph - N/A   Overcast
8:35 PM 64.4 °F 50.0 °F 59% 29.90 in 10.0 mi West 8.1 mph - N/A   Mostly Cloudy
8:55 PM 64.4 °F 48.2 °F 56% 29.90 in 10.0 mi West 8.1 mph - N/A   Partly Cloudy
9:15 PM 62.6 °F 48.2 °F 59% 29.91 in 10.0 mi West 6.9 mph - N/A   Scattered Clouds
9:35 PM 62.6 °F 48.2 °F 59% 29.92 in 10.0 mi West 5.8 mph - N/A   Mostly Cloudy
9:55 PM 60.8 °F 48.2 °F 63% 29.92 in 10.0 mi West 5.8 mph - N/A   Mostly Cloudy
10:15 PM 62.6 °F 48.2 °F 59% 29.92 in 10.0 mi WSW 3.5 mph - N/A   Mostly Cloudy
10:35 PM 60.8 °F 50.0 °F 68% 29.92 in 10.0 mi WSW 3.5 mph - N/A   Scattered Clouds
10:55 PM 60.8 °F 50.0 °F 68% 29.92 in 10.0 mi WSW 3.5 mph - N/A   Scattered Clouds
11:35 PM 57.2 °F 48.2 °F 72% 29.93 in 10.0 mi WSW 3.5 mph - N/A   Clear
11:55 PM 57.2 °F 48.2 °F 72% 29.93 in 10.0 mi SW 4.6 mph - N/A   Clear